Regional Weather Roundup
Issued by NWS Mobile, AL

Home | Current Version | Previous Version | Text Only | Print | Product List | Glossary On
Versions: 1 2 3 4 5 6 7 8 9 10 11 12 13 14 15 16 17 18 19 20 21 22 23 24 25 26 27 28 29 30 31 32 33 34 35 36 37 38 39 40 41 42 43 44 45 46 47 48 49 50
731
ASUS44 KMOB 221313
RWRMOB
REGIONAL WEATHER ROUNDUP
NATIONAL WEATHER SERVICE MOBILE AL
800 AM CDT THU APR 22 2021

NOTE: "FAIR" INDICATES FEW OR NO CLOUDS BELOW 12,000 FEET WITH NO
      SIGNIFICANT WEATHER AND/OR OBSTRUCTIONS TO VISIBILITY.

  * THESE STATIONS ARE PART OF THE UNIVERSITY OF SOUTH ALABAMA
    MESONET AND ARE NOT UNDER NWS OR FAA QUALITY CONTROL.

ALZ061>064-221400-
COASTAL ALABAMA

CITY           SKY/WX    TMP DP  RH WIND       PRES   REMARKS
MOBILE REG APT MOSUNNY   49  35  58 NE9       30.22R
BROOKLEY FIELD SUNNY     52  35  52 NE12      30.24R
USA CAMPUS*    NOT AVBL
DOG RIVER*     NOT AVBL


CITY           SKY/WX    TMP DP  RH WIND       PRES   REMARKS
GULF SHORES    SUNNY     50  34  54 NE8       30.22R

$$

ALZ051>060-221400-
INTERIOR SOUTHWEST AND SOUTH CENTRAL ALABAMA

CITY           SKY/WX    TMP DP  RH WIND       PRES   REMARKS
GREENVILLE     SUNNY     48  30  49 NE7       30.24R
EVERGREEN      SUNNY     49  37  63 NE6       30.24R
ATMORE*          N/A     48  34  57 E8        30.24R
ANDALUSIA/OPP  SUNNY     52  30  43 NE9       30.23R
ANDALUSIA*       N/A     48  30  49 NE9       30.22R
FLORALA APT    SUNNY     50  30  46 NE9G18    30.24R
FLORALA*       NOT AVBL

$$

FLZ001>006-221400-
WESTERN FLORIDA PANHANDLE

CITY           SKY/WX    TMP DP  RH WIND       PRES   REMARKS
PENSACOLA      SUNNY     52  32  46 NE7G18    30.22R
NAS PENSACOLA  SUNNY     53  30  41 NE14      30.21R
MILTON         SUNNY     50  32  50 VRB7      30.22R
WHTNG S FIELD  SUNNY     51  34  52 NE9       30.22R


CITY           SKY/WX    TMP DP  RH WIND       PRES   REMARKS
JAY*           NOT AVBL
DUKE FIELD     SUNNY     50  28  43 NE10      30.21R
CRESTVIEW      SUNNY     51  31  46 MISG      30.23R
VALPARAISO     SUNNY     52  27  38 NE14      30.21R
DESTIN         SUNNY     53  30  41 NE12G18   30.21R

$$

MSZ076-079-221400-
INTERIOR SOUTHEAST MISSISSIPPI

CITY           SKY/WX    TMP DP  RH WIND       PRES   REMARKS
LEAKESVILLE*   NOT AVBL
AGRICOLA*        N/A     48  36  61 NE6       30.22R

$$

MARINE OBSERVATIONS

STATION/POSITION TIME  TEMP    WIND        PRES    WAVE
                       AIR SEA DIR/SP/G            HT/PER
                 (UTC) (F)     (DEG/KT/KT) (MB)    (FT/S)
PETIT BOIS ISLND 1224   55      70/ 20/ 25 1022.7
E DAUPHIN ISLAND 1200   53      50/ 19/ 22 1022.5R
MIDDLE BAY LIGHT 1100   52      10/ 19     1020.7
USCG MOBILE BAY  1224   50 67   50/ 12/ 16 1022.6
STATE DOCKS      1224   52 67              1023.5
WEEKS BAY        1145   47                 1023.0R
FORT MORGAN      1224   52      60/ 16/ 21 1022.6
12 S ORANGE BCH  1250   56 68   50/ 19/ 23 1023.8R   4/ 5
PENSACOLA BAY    1224   52 69  300/  2/ 12 1023.0
64 S DAUPHIN ISL 1250   63 74   60/ 17/ 23 1021.5R   5/ 6

$$

SELECTED LOCATIONS ACROSS THE REGION

CITY           SKY/WX    TMP DP  RH WIND       PRES   REMARKS
NEW ORLEANS    MOSUNNY   59  38  45 NE14G20   30.20R
GULFPORT       SUNNY     53  35  50 E9        30.21R
PASCAGOULA AP  SUNNY     51  38  60 NE8       30.22R
PASCAGOULA*    NOT AVBL
HATTIESBURG    SUNNY     46  38  73 VRB3      30.25R
LAUREL         SUNNY     46  40  79 VRB3      30.25R
MERIDIAN       SUNNY     46  39  76 N5        30.26R
JACKSON        SUNNY     50  33  52 E9        30.24R
MONTGOMERY     MOSUNNY   46  38  73 CALM      30.27R
TROY           SUNNY     49  31  49 NE7       30.25R
ASHFORD*         N/A     48  30  49 NE9       30.22R
DOTHAN         SUNNY     50  30  46 NE10      30.25R
PANAMA CITY    SUNNY     51  29  42 N14       30.19R

$$





USA.gov is the U.S. government's official web portal to all federal, state and local government web resources and services.